Time,TemperatureF,DewpointF,PressureIn,WindDirection,WindDirectionDegrees,WindSpeedMPH,WindSpeedGustMPH,Humidity,HourlyPrecipIn,Conditions,Clouds,dailyrainin,SoftwareType,DateUTC
2013-02-02 00:00:00,23.0,-7.6,29.88,WSW,242,3.1,5.4,25,0.00,,---,0.00,VWS V12.07,2013-02-02 05:00:00,
2013-02-02 00:03:00,22.8,-7.7,29.88,NW,315,3.1,7.6,25,0.00,,---,0.00,VWS V12.07,2013-02-02 05:03:00,
2013-02-02 00:09:00,22.8,-7.7,29.88,WSW,245,3.6,7.6,25,0.00,,---,0.00,VWS V12.07,2013-02-02 05:09:00,
2013-02-02 00:15:00,22.8,-7.7,29.88,West,265,0.0,8.3,25,0.00,,---,0.00,VWS V12.07,2013-02-02 05:15:00,
2013-02-02 00:18:00,22.8,-7.7,29.88,SW,219,3.6,8.3,25,0.00,,---,0.00,VWS V12.07,2013-02-02 05:18:00,
2013-02-02 00:21:00,22.8,-7.7,29.88,SE,126,3.1,8.3,25,0.00,,---,0.00,VWS V12.07,2013-02-02 05:21:00,
2013-02-02 00:27:00,22.8,-7.7,29.88,WSW,241,3.6,8.3,25,0.00,,---,0.00,VWS V12.07,2013-02-02 05:27:00,
2013-02-02 00:33:00,22.6,-7.9,29.88,WSW,239,5.4,8.1,25,0.00,,---,0.00,VWS V12.07,2013-02-02 05:33:00,
2013-02-02 00:39:00,22.5,-8.0,29.88,SW,214,5.4,8.3,25,0.00,,---,0.00,VWS V12.07,2013-02-02 05:39:00,
2013-02-02 00:47:00,22.5,-8.0,29.88,WNW,292,4.9,5.8,25,0.00,,---,0.00,VWS V12.07,2013-02-02 05:47:00,
2013-02-02 00:53:00,22.3,-8.2,29.88,WSW,253,5.8,8.3,25,0.00,,---,0.00,VWS V12.07,2013-02-02 05:53:00,
2013-02-02 00:59:00,22.3,-8.2,29.88,West,267,6.3,6.3,25,0.00,,---,0.00,VWS V12.07,2013-02-02 05:59:00,
2013-02-02 01:05:00,22.3,-8.2,29.91,WSW,245,5.4,10.1,25,0.00,,---,0.00,VWS V12.07,2013-02-02 06:05:00,
2013-02-02 01:11:00,22.1,-8.3,29.91,WSW,249,3.6,10.1,25,0.00,,---,0.00,VWS V12.07,2013-02-02 06:11:00,
2013-02-02 01:17:00,22.1,-8.3,29.91,WSW,247,3.1,6.7,25,0.00,,---,0.00,VWS V12.07,2013-02-02 06:17:00,
2013-02-02 01:23:00,21.9,-8.5,29.91,WSW,252,7.6,8.7,25,0.00,,---,0.00,VWS V12.07,2013-02-02 06:23:00,
2013-02-02 01:29:00,21.9,-8.5,29.91,NW,312,3.6,3.6,25,0.00,,---,0.00,VWS V12.07,2013-02-02 06:29:00,
2013-02-02 01:35:00,21.9,-8.5,29.91,WSW,248,4.0,5.8,25,0.00,,---,0.00,VWS V12.07,2013-02-02 06:35:00,
2013-02-02 01:41:00,21.9,-8.5,29.91,WNW,283,5.8,8.3,25,0.00,,---,0.00,VWS V12.07,2013-02-02 06:41:00,
2013-02-02 01:47:00,21.9,-8.5,29.91,SW,221,5.4,5.4,25,0.00,,---,0.00,VWS V12.07,2013-02-02 06:47:00,
2013-02-02 01:53:00,21.7,-8.6,29.94,SW,216,2.7,5.8,25,0.00,,---,0.00,VWS V12.07,2013-02-02 06:53:00,
2013-02-02 01:58:00,21.7,-8.6,29.94,West,278,4.0,5.8,25,0.00,,---,0.00,VWS V12.07,2013-02-02 06:58:00,
2013-02-02 02:04:00,21.7,-8.6,29.94,WSW,238,0.0,5.4,25,0.00,,---,0.00,VWS V12.07,2013-02-02 07:04:00,
2013-02-02 02:10:00,21.6,-8.8,29.94,NNW,340,2.7,5.4,25,0.00,,---,0.00,VWS V12.07,2013-02-02 07:10:00,
2013-02-02 02:18:00,21.6,-8.8,29.94,WNW,302,3.6,4.9,25,0.00,,---,0.00,VWS V12.07,2013-02-02 07:18:00,
2013-02-02 02:24:00,21.4,-9.0,29.94,SW,223,5.4,6.3,25,0.00,,---,0.00,VWS V12.07,2013-02-02 07:24:00,
2013-02-02 02:30:00,21.4,-9.0,29.94,West,263,2.7,5.8,25,0.00,,---,0.00,VWS V12.07,2013-02-02 07:30:00,
2013-02-02 02:36:00,21.4,-9.0,29.94,WNW,284,2.7,5.8,25,0.00,,---,0.00,VWS V12.07,2013-02-02 07:36:00,
2013-02-02 02:42:00,21.2,-9.1,29.94,WSW,243,0.0,5.8,25,0.00,,---,0.00,VWS V12.07,2013-02-02 07:42:00,
2013-02-02 02:48:00,21.2,-9.1,29.94,SW,226,4.0,6.3,25,0.00,,---,0.00,VWS V12.07,2013-02-02 07:48:00,
2013-02-02 02:54:00,21.2,-9.1,29.94,SW,230,2.7,6.3,25,0.00,,---,0.00,VWS V12.07,2013-02-02 07:54:00,
2013-02-02 03:00:00,21.2,-9.1,29.94,SSW,201,0.0,0.0,25,0.00,,---,0.00,VWS V12.07,2013-02-02 08:00:00,
2013-02-02 03:08:00,21.2,-9.1,29.94,South,186,0.0,5.4,25,0.00,,---,0.00,VWS V12.07,2013-02-02 08:08:00,
2013-02-02 03:14:00,21.0,-9.3,29.94,WSW,249,3.6,4.0,25,0.00,,---,0.00,VWS V12.07,2013-02-02 08:14:00,
2013-02-02 03:20:00,21.0,-9.3,29.94,West,271,4.5,5.8,25,0.00,,---,0.00,VWS V12.07,2013-02-02 08:20:00,
2013-02-02 03:28:00,20.8,-9.4,29.94,SW,221,3.1,5.8,25,0.00,,---,0.00,VWS V12.07,2013-02-02 08:28:00,
2013-02-02 03:34:00,20.8,-9.4,29.94,SW,227,4.0,4.0,25,0.00,,---,0.00,VWS V12.07,2013-02-02 08:34:00,
2013-02-02 03:40:00,20.7,-9.6,29.94,NW,316,5.4,5.4,25,0.00,,---,0.00,VWS V12.07,2013-02-02 08:40:00,
2013-02-02 03:46:00,20.7,-9.6,29.94,WSW,247,0.0,4.9,25,0.00,,---,0.00,VWS V12.07,2013-02-02 08:46:00,
2013-02-02 03:52:00,20.7,-9.6,29.94,WSW,257,0.0,5.8,25,0.00,,---,0.00,VWS V12.07,2013-02-02 08:52:00,
2013-02-02 03:58:00,20.5,-9.7,29.94,West,275,0.0,5.8,25,0.00,,---,0.00,VWS V12.07,2013-02-02 08:58:00,
2013-02-02 04:04:00,20.5,-9.7,29.94,WSW,247,3.1,4.9,25,0.00,,---,0.00,VWS V12.07,2013-02-02 09:04:00,
2013-02-02 04:11:00,20.3,-9.9,29.94,SW,228,0.0,4.9,25,0.00,,---,0.00,VWS V12.07,2013-02-02 09:11:00,
2013-02-02 04:17:00,20.3,-9.9,29.94,WNW,282,0.0,4.9,25,0.00,,---,0.00,VWS V12.07,2013-02-02 09:17:00,
2013-02-02 04:23:00,20.3,-9.9,29.97,SW,233,0.0,5.8,25,0.00,,---,0.00,VWS V12.07,2013-02-02 09:23:00,
2013-02-02 04:29:00,20.3,-9.9,29.97,West,265,0.0,0.0,25,0.00,,---,0.00,VWS V12.07,2013-02-02 09:29:00,
2013-02-02 04:35:00,20.1,-10.1,29.97,West,265,0.0,0.0,25,0.00,,---,0.00,VWS V12.07,2013-02-02 09:35:00,
2013-02-02 04:41:00,20.1,-10.1,29.97,WSW,239,0.0,4.0,25,0.00,,---,0.00,VWS V12.07,2013-02-02 09:41:00,
2013-02-02 04:47:00,20.1,-10.1,29.97,WSW,250,2.7,5.8,25,0.00,,---,0.00,VWS V12.07,2013-02-02 09:47:00,
2013-02-02 04:53:00,19.9,-10.2,29.97,West,278,0.0,6.3,25,0.00,,---,0.00,VWS V12.07,2013-02-02 09:53:00,
2013-02-02 04:59:00,19.9,-10.2,29.97,West,261,2.2,3.1,25,0.00,,---,0.00,VWS V12.07,2013-02-02 09:59:00,
2013-02-02 05:05:00,19.8,-10.4,30.00,WSW,242,2.7,7.6,25,0.00,,---,0.00,VWS V12.07,2013-02-02 10:05:00,
2013-02-02 05:11:00,19.8,-10.4,30.00,WSW,253,2.7,8.3,25,0.00,,---,0.00,VWS V12.07,2013-02-02 10:11:00,
2013-02-02 05:17:00,19.8,-10.4,30.00,West,266,2.7,5.4,25,0.00,,---,0.00,VWS V12.07,2013-02-02 10:17:00,
2013-02-02 05:23:00,19.6,-10.5,30.00,WNW,288,0.0,5.4,25,0.00,,---,0.00,VWS V12.07,2013-02-02 10:23:00,
2013-02-02 05:29:00,19.6,-10.5,30.00,West,263,3.1,3.1,25,0.00,,---,0.00,VWS V12.07,2013-02-02 10:29:00,
2013-02-02 05:35:00,19.6,-10.5,30.00,West,268,2.7,4.9,25,0.00,,---,0.00,VWS V12.07,2013-02-02 10:35:00,
2013-02-02 05:41:00,19.4,-10.7,30.00,West,268,2.7,5.4,25,0.00,,---,0.00,VWS V12.07,2013-02-02 10:41:00,
2013-02-02 05:46:00,19.4,-10.7,30.00,WSW,238,0.0,6.3,25,0.00,,---,0.00,VWS V12.07,2013-02-02 10:46:00,
2013-02-02 05:52:00,19.2,-10.8,30.00,SW,225,2.7,6.3,25,0.00,,---,0.00,VWS V12.07,2013-02-02 10:52:00,
2013-02-02 05:58:00,19.2,-10.8,30.00,WSW,249,0.0,6.3,25,0.00,,---,0.00,VWS V12.07,2013-02-02 10:58:00,
2013-02-02 06:04:00,19.2,-10.8,30.00,West,275,3.6,5.4,25,0.00,,---,0.00,VWS V12.07,2013-02-02 11:04:00,
2013-02-02 06:10:00,19.2,-10.8,30.00,West,261,3.1,5.4,25,0.00,,---,0.00,VWS V12.07,2013-02-02 11:10:00,
2013-02-02 06:15:00,19.2,-10.8,30.00,West,261,0.0,0.0,25,0.00,,---,0.00,VWS V12.07,2013-02-02 11:15:00,
2013-02-02 06:21:00,19.0,-11.0,30.00,West,261,0.0,0.0,25,0.00,,---,0.00,VWS V12.07,2013-02-02 11:21:00,
2013-02-02 06:27:00,19.0,-11.0,30.00,West,261,0.0,0.0,25,0.00,,---,0.00,VWS V12.07,2013-02-02 11:27:00,
2013-02-02 06:33:00,18.9,-11.1,30.00,West,265,2.7,3.1,25,0.00,,---,0.00,VWS V12.07,2013-02-02 11:33:00,
2013-02-02 06:39:00,18.7,-11.3,30.00,WSW,254,3.6,6.3,25,0.00,,---,0.00,VWS V12.07,2013-02-02 11:39:00,
2013-02-02 06:45:00,18.7,-11.3,30.00,WSW,247,0.0,2.7,25,0.00,,---,0.00,VWS V12.07,2013-02-02 11:45:00,
2013-02-02 06:51:00,18.5,-11.4,30.03,WSW,244,5.4,5.4,25,0.00,,---,0.00,VWS V12.07,2013-02-02 11:51:00,
2013-02-02 06:57:00,18.5,-11.4,30.03,WSW,253,0.0,5.4,25,0.00,,---,0.00,VWS V12.07,2013-02-02 11:57:00,
2013-02-02 07:03:00,18.3,-11.6,30.03,West,278,3.1,5.4,25,0.00,,---,0.00,VWS V12.07,2013-02-02 12:03:00,
2013-02-02 07:09:00,18.3,-11.6,30.03,SSW,196,3.1,5.4,25,0.00,,---,0.00,VWS V12.07,2013-02-02 12:09:00,
2013-02-02 07:15:00,18.3,-11.6,30.03,SW,234,0.0,0.0,25,0.00,,---,0.00,VWS V12.07,2013-02-02 12:15:00,
2013-02-02 07:21:00,18.3,-11.6,30.03,SW,234,0.0,3.6,25,0.00,,---,0.00,VWS V12.07,2013-02-02 12:21:00,
2013-02-02 07:27:00,18.3,-11.6,30.03,SW,234,0.0,3.6,25,0.00,,---,0.00,VWS V12.07,2013-02-02 12:27:00,
2013-02-02 07:33:00,18.5,-11.4,30.03,SW,224,4.0,5.4,25,0.00,,---,0.00,VWS V12.07,2013-02-02 12:33:00,
2013-02-02 07:39:00,18.5,-11.4,30.03,WSW,254,0.0,5.4,25,0.00,,---,0.00,VWS V12.07,2013-02-02 12:39:00,
2013-02-02 07:45:00,18.7,-11.3,30.03,WSW,245,3.1,5.4,25,0.00,,---,0.00,VWS V12.07,2013-02-02 12:45:00,
2013-02-02 07:51:00,19.0,-11.0,30.03,West,265,2.7,5.4,25,0.00,,---,0.00,VWS V12.07,2013-02-02 12:51:00,
2013-02-02 07:57:00,19.0,-11.0,30.03,West,269,0.0,5.4,25,0.00,,---,0.00,VWS V12.07,2013-02-02 12:57:00,
2013-02-02 08:03:00,19.2,-10.8,30.03,WSW,252,4.9,4.9,25,0.00,,---,0.00,VWS V12.07,2013-02-02 13:03:00,
2013-02-02 08:09:00,19.4,-10.7,30.03,SW,223,4.0,6.3,25,0.00,,---,0.00,VWS V12.07,2013-02-02 13:09:00,
2013-02-02 08:15:00,19.6,-10.5,30.03,WSW,244,2.2,6.3,25,0.00,,---,0.00,VWS V12.07,2013-02-02 13:15:00,
2013-02-02 08:21:00,19.8,-10.4,30.06,West,259,2.7,6.3,25,0.00,,---,0.00,VWS V12.07,2013-02-02 13:21:00,
2013-02-02 08:27:00,19.9,-10.2,30.06,WSW,257,3.6,8.1,25,0.00,,---,0.00,VWS V12.07,2013-02-02 13:27:00,
2013-02-02 08:33:00,19.9,-10.2,30.06,SW,224,3.1,8.3,25,0.00,,---,0.00,VWS V12.07,2013-02-02 13:33:00,
2013-02-02 08:39:00,20.1,-10.1,30.06,WSW,238,2.7,8.3,25,0.00,,---,0.00,VWS V12.07,2013-02-02 13:39:00,
2013-02-02 08:45:00,20.3,-9.9,30.06,WSW,249,4.0,5.8,25,0.00,,---,0.00,VWS V12.07,2013-02-02 13:45:00,
2013-02-02 08:51:00,20.3,-9.9,30.06,NW,306,3.6,6.3,25,0.00,,---,0.00,VWS V12.07,2013-02-02 13:51:00,
2013-02-02 08:57:00,20.5,-9.7,30.06,West,259,2.2,6.7,25,0.00,,---,0.00,VWS V12.07,2013-02-02 13:57:00,
2013-02-02 09:03:00,20.8,-9.4,30.06,SW,229,3.6,4.0,25,0.00,,---,0.00,VWS V12.07,2013-02-02 14:03:00,
2013-02-02 09:09:00,21.2,-9.1,30.06,WSW,254,3.1,6.3,25,0.00,,---,0.00,VWS V12.07,2013-02-02 14:09:00,
2013-02-02 09:15:00,21.6,-8.8,30.06,SW,225,0.0,4.0,25,0.00,,---,0.00,VWS V12.07,2013-02-02 14:15:00,
2013-02-02 09:21:00,23.4,-8.1,30.06,NW,320,3.6,6.3,24,0.00,,---,0.00,VWS V12.07,2013-02-02 14:21:00,
2013-02-02 09:27:00,24.4,-7.2,30.06,SW,235,3.1,6.3,24,0.00,,---,0.00,VWS V12.07,2013-02-02 14:27:00,
2013-02-02 09:33:00,25.3,-6.4,30.06,SSW,204,3.1,8.7,24,0.00,,---,0.00,VWS V12.07,2013-02-02 14:33:00,
2013-02-02 09:39:00,25.3,-6.4,30.06,SW,224,3.6,8.7,24,0.00,,---,0.00,VWS V12.07,2013-02-02 14:39:00,
2013-02-02 09:45:00,26.1,-5.8,30.06,WSW,258,3.1,6.3,24,0.00,,---,0.00,VWS V12.07,2013-02-02 14:45:00,
2013-02-02 09:51:00,26.4,-5.5,30.06,West,275,4.9,8.7,24,0.00,,---,0.00,VWS V12.07,2013-02-02 14:51:00,
2013-02-02 09:57:00,27.0,-5.9,30.06,West,280,7.6,8.7,23,0.00,,---,0.00,VWS V12.07,2013-02-02 14:57:00,
2013-02-02 10:03:00,27.3,-5.6,30.06,WNW,290,0.0,5.8,23,0.00,,---,0.00,VWS V12.07,2013-02-02 15:03:00,
2013-02-02 10:09:00,27.9,-5.1,30.06,WSW,243,3.6,5.8,23,0.00,,---,0.00,VWS V12.07,2013-02-02 15:09:00,
2013-02-02 10:15:00,28.6,-4.5,30.06,SSW,206,2.7,5.8,23,0.00,,---,0.00,VWS V12.07,2013-02-02 15:15:00,
2013-02-02 10:21:00,29.1,-4.1,30.03,WSW,249,2.7,5.8,23,0.00,,---,0.00,VWS V12.07,2013-02-02 15:21:00,
2013-02-02 10:27:00,29.7,-3.6,30.03,WNW,288,7.6,7.6,23,0.00,,---,0.00,VWS V12.07,2013-02-02 15:27:00,
2013-02-02 10:33:00,29.8,-3.4,30.03,WSW,237,4.0,7.2,23,0.00,,---,0.00,VWS V12.07,2013-02-02 15:33:00,
2013-02-02 10:39:00,29.8,-3.4,30.03,SW,216,5.8,8.3,23,0.00,,---,0.00,VWS V12.07,2013-02-02 15:39:00,
2013-02-02 10:45:00,29.7,-3.6,30.03,SW,231,3.6,3.6,23,0.00,,---,0.00,VWS V12.07,2013-02-02 15:45:00,
2013-02-02 10:51:00,30.0,-3.3,30.03,WSW,237,3.6,5.8,23,0.00,,---,0.00,VWS V12.07,2013-02-02 15:51:00,
2013-02-02 10:57:00,30.4,-3.0,30.03,SW,226,3.1,8.7,23,0.00,,---,0.00,VWS V12.07,2013-02-02 15:57:00,
2013-02-02 11:06:00,30.6,-2.8,30.00,SW,226,5.4,6.3,23,0.00,,---,0.00,VWS V12.07,2013-02-02 16:06:00,
2013-02-02 11:12:00,30.9,-2.5,30.00,WSW,252,6.3,6.3,23,0.00,,---,0.00,VWS V12.07,2013-02-02 16:12:00,
2013-02-02 11:17:00,31.1,-2.4,30.00,WSW,250,4.0,8.1,23,0.00,,---,0.00,VWS V12.07,2013-02-02 16:17:00,
2013-02-02 11:24:00,30.9,-2.5,30.03,WSW,250,2.7,8.1,23,0.00,,---,0.00,VWS V12.07,2013-02-02 16:24:00,
2013-02-02 11:30:00,30.9,-2.5,30.03,SW,233,3.6,4.0,23,0.00,,---,0.00,VWS V12.07,2013-02-02 16:30:00,
2013-02-02 11:37:00,30.7,-2.7,30.00,SW,230,5.4,8.1,23,0.00,,---,0.00,VWS V12.07,2013-02-02 16:37:00,
2013-02-02 11:43:00,30.6,-2.8,30.00,WNW,292,3.1,8.1,23,0.00,,---,0.00,VWS V12.07,2013-02-02 16:43:00,
2013-02-02 11:48:00,30.0,-3.3,30.00,West,277,0.0,5.4,23,0.00,,---,0.00,VWS V12.07,2013-02-02 16:48:00,
2013-02-02 11:54:00,30.2,-3.1,30.00,WSW,257,3.1,5.8,23,0.00,,---,0.00,VWS V12.07,2013-02-02 16:54:00,
2013-02-02 12:00:00,30.4,-3.0,30.00,West,273,7.6,11.0,23,0.00,,---,0.00,VWS V12.07,2013-02-02 17:00:00,
2013-02-02 12:07:00,30.4,-3.0,29.97,SE,130,3.6,11.0,23,0.00,,---,0.00,VWS V12.07,2013-02-02 17:07:00,
2013-02-02 12:13:00,30.2,-3.1,29.97,West,266,7.6,11.0,23,0.00,,---,0.00,VWS V12.07,2013-02-02 17:13:00,
2013-02-02 12:19:00,30.4,-3.0,29.97,West,280,5.8,7.2,23,0.00,,---,0.00,VWS V12.07,2013-02-02 17:19:00,
2013-02-02 12:24:00,30.2,-3.1,29.97,SW,233,5.4,8.1,23,0.00,,---,0.00,VWS V12.07,2013-02-02 17:24:00,
2013-02-02 12:30:00,30.2,-3.1,29.97,WSW,253,9.6,10.5,23,0.00,,---,0.00,VWS V12.07,2013-02-02 17:30:00,
2013-02-02 12:36:00,29.8,-3.4,29.97,West,274,4.0,10.5,23,0.00,,---,0.00,VWS V12.07,2013-02-02 17:36:00,
2013-02-02 12:44:00,30.0,-3.3,29.97,West,273,3.1,5.4,23,0.00,,---,0.00,VWS V12.07,2013-02-02 17:44:00,
2013-02-02 12:50:00,30.2,-3.1,29.97,SW,214,6.3,13.2,23,0.00,,---,0.00,VWS V12.07,2013-02-02 17:50:00,
2013-02-02 12:58:00,30.2,-3.1,29.97,WSW,257,3.6,13.2,23,0.00,,---,0.00,VWS V12.07,2013-02-02 17:58:00,
2013-02-02 13:04:00,30.0,-3.3,29.94,WSW,250,4.0,8.1,23,0.00,,---,0.00,VWS V12.07,2013-02-02 18:04:00,
2013-02-02 13:10:00,30.0,-3.3,29.94,SW,216,4.9,8.1,23,0.00,,---,0.00,VWS V12.07,2013-02-02 18:10:00,
2013-02-02 13:16:00,30.2,-3.1,29.94,West,279,4.9,6.3,23,0.00,,---,0.00,VWS V12.07,2013-02-02 18:16:00,
2013-02-02 13:22:00,30.6,-2.8,29.94,WSW,241,3.6,8.1,23,0.00,,---,0.00,VWS V12.07,2013-02-02 18:22:00,
2013-02-02 13:28:00,30.9,-2.5,29.94,SW,216,2.2,8.7,23,0.00,,---,0.00,VWS V12.07,2013-02-02 18:28:00,
2013-02-02 13:34:00,31.1,-2.4,29.94,WSW,256,4.0,4.0,23,0.00,,---,0.00,VWS V12.07,2013-02-02 18:34:00,
2013-02-02 13:40:00,31.1,-2.4,29.94,SW,218,2.7,10.5,23,0.00,,---,0.00,VWS V12.07,2013-02-02 18:40:00,
2013-02-02 13:46:00,31.1,-2.4,29.94,SW,226,3.1,7.6,23,0.00,,---,0.00,VWS V12.07,2013-02-02 18:46:00,
2013-02-02 13:52:00,31.3,-2.2,29.94,WSW,242,6.3,8.7,23,0.00,,---,0.00,VWS V12.07,2013-02-02 18:52:00,
2013-02-02 13:58:00,31.6,-1.9,29.94,WSW,247,4.0,9.6,23,0.00,,---,0.00,VWS V12.07,2013-02-02 18:58:00,
2013-02-02 14:04:00,32.0,-1.6,29.91,WSW,246,3.1,6.3,23,0.00,,---,0.00,VWS V12.07,2013-02-02 19:04:00,
2013-02-02 14:10:00,32.4,-1.3,29.91,SSW,208,5.8,8.1,23,0.00,,---,0.00,VWS V12.07,2013-02-02 19:10:00,
2013-02-02 14:16:00,32.5,-1.1,29.91,West,273,5.8,5.8,23,0.00,,---,0.00,VWS V12.07,2013-02-02 19:16:00,
2013-02-02 14:22:00,32.2,-1.4,29.91,West,263,8.1,11.0,23,0.00,,---,0.00,VWS V12.07,2013-02-02 19:22:00,
2013-02-02 14:28:00,31.8,-1.8,29.91,WSW,251,5.4,12.3,23,0.00,,---,0.00,VWS V12.07,2013-02-02 19:28:00,
2013-02-02 14:35:00,31.8,-1.8,29.91,South,179,3.6,8.3,23,0.00,,---,0.00,VWS V12.07,2013-02-02 19:35:00,
2013-02-02 14:41:00,31.8,-1.8,29.91,WSW,247,7.6,8.3,23,0.00,,---,0.00,VWS V12.07,2013-02-02 19:41:00,
2013-02-02 14:47:00,31.5,-2.0,29.91,West,271,5.4,8.3,23,0.00,,---,0.00,VWS V12.07,2013-02-02 19:47:00,
2013-02-02 14:53:00,31.1,-2.4,29.91,West,276,5.8,8.7,23,0.00,,---,0.00,VWS V12.07,2013-02-02 19:53:00,
2013-02-02 15:01:00,30.9,-2.5,29.91,SE,143,3.6,7.6,23,0.00,,---,0.00,VWS V12.07,2013-02-02 20:01:00,
2013-02-02 15:07:00,30.7,-2.7,29.91,SSW,202,0.0,7.6,23,0.00,,---,0.00,VWS V12.07,2013-02-02 20:07:00,
2013-02-02 15:13:00,30.7,-2.7,29.91,SW,218,5.8,8.3,23,0.00,,---,0.00,VWS V12.07,2013-02-02 20:13:00,
2013-02-02 15:19:00,30.6,-2.8,29.91,WSW,251,4.9,8.3,23,0.00,,---,0.00,VWS V12.07,2013-02-02 20:19:00,
2013-02-02 15:25:00,30.4,-3.0,29.91,SW,214,6.3,8.3,23,0.00,,---,0.00,VWS V12.07,2013-02-02 20:25:00,
2013-02-02 15:31:00,30.2,-3.1,29.91,SSW,205,2.7,4.0,23,0.00,,---,0.00,VWS V12.07,2013-02-02 20:31:00,
2013-02-02 15:37:00,30.4,-3.0,29.88,SW,232,4.9,5.4,23,0.00,,---,0.00,VWS V12.07,2013-02-02 20:37:00,
2013-02-02 15:43:00,30.4,-3.0,29.88,West,262,3.6,5.8,23,0.00,,---,0.00,VWS V12.07,2013-02-02 20:43:00,
2013-02-02 15:49:00,30.4,-3.0,29.88,WSW,257,3.1,4.9,23,0.00,,---,0.00,VWS V12.07,2013-02-02 20:49:00,
2013-02-02 15:55:00,30.4,-3.0,29.88,WSW,245,3.1,6.3,23,0.00,,---,0.00,VWS V12.07,2013-02-02 20:55:00,
2013-02-02 16:01:00,30.4,-3.0,29.88,WSW,240,6.3,8.3,23,0.00,,---,0.00,VWS V12.07,2013-02-02 21:01:00,
2013-02-02 16:07:00,30.4,-3.0,29.88,WSW,254,4.0,8.3,23,0.00,,---,0.00,VWS V12.07,2013-02-02 21:07:00,
2013-02-02 16:14:00,30.2,-3.1,29.88,West,267,10.5,10.5,23,0.00,,---,0.00,VWS V12.07,2013-02-02 21:14:00,
2013-02-02 16:20:00,30.2,-3.1,29.88,WSW,256,3.1,8.7,23,0.00,,---,0.00,VWS V12.07,2013-02-02 21:20:00,
2013-02-02 16:25:00,30.2,-3.1,29.88,West,266,4.9,10.1,23,0.00,,---,0.00,VWS V12.07,2013-02-02 21:25:00,
2013-02-02 16:31:00,30.0,-3.3,29.88,SSE,156,4.0,7.6,23,0.00,,---,0.00,VWS V12.07,2013-02-02 21:31:00,
2013-02-02 16:37:00,30.0,-3.3,29.88,WSW,254,4.9,8.3,23,0.00,,---,0.00,VWS V12.07,2013-02-02 21:37:00,
2013-02-02 16:43:00,30.0,-3.3,29.88,SSW,207,3.6,8.7,23,0.00,,---,0.00,VWS V12.07,2013-02-02 21:43:00,
2013-02-02 16:48:00,30.0,-3.3,29.88,SW,233,3.6,8.3,23,0.00,,---,0.00,VWS V12.07,2013-02-02 21:48:00,
2013-02-02 16:54:00,29.8,-3.4,29.88,WSW,249,8.7,8.7,23,0.00,,---,0.00,VWS V12.07,2013-02-02 21:54:00,
2013-02-02 17:00:00,29.7,-3.6,29.88,West,268,8.1,8.1,23,0.00,,---,0.00,VWS V12.07,2013-02-02 22:00:00,
2013-02-02 17:07:00,29.7,-3.6,29.88,West,259,6.3,8.3,23,0.00,,---,0.00,VWS V12.07,2013-02-02 22:07:00,
2013-02-02 17:12:00,29.5,-3.7,29.88,WSW,241,4.0,8.3,23,0.00,,---,0.00,VWS V12.07,2013-02-02 22:12:00,
2013-02-02 17:18:00,29.5,-3.7,29.88,West,272,3.6,10.1,23,0.00,,---,0.00,VWS V12.07,2013-02-02 22:18:00,
2013-02-02 17:24:00,29.5,-3.7,29.88,West,261,5.4,10.1,23,0.00,,---,0.00,VWS V12.07,2013-02-02 22:24:00,
2013-02-02 17:30:00,29.5,-3.7,29.88,SW,231,2.7,5.8,23,0.00,,---,0.00,VWS V12.07,2013-02-02 22:30:00,
2013-02-02 17:36:00,29.5,-3.7,29.88,SW,223,2.7,5.8,23,0.00,,---,0.00,VWS V12.07,2013-02-02 22:36:00,
2013-02-02 17:42:00,29.5,-3.7,29.88,West,278,9.6,12.8,23,0.00,,---,0.00,VWS V12.07,2013-02-02 22:42:00,
2013-02-02 17:48:00,29.3,-3.9,29.88,WSW,251,2.7,8.7,23,0.00,,---,0.00,VWS V12.07,2013-02-02 22:48:00,
2013-02-02 17:54:00,29.3,-3.9,29.88,SW,231,4.0,8.7,23,0.00,,---,0.00,VWS V12.07,2013-02-02 22:54:00,
2013-02-02 18:00:00,29.3,-3.9,29.88,WSW,241,4.0,5.8,23,0.00,,---,0.00,VWS V12.07,2013-02-02 23:00:00,
2013-02-02 18:06:00,29.3,-3.9,29.88,SSE,164,3.1,7.2,23,0.00,,---,0.00,VWS V12.07,2013-02-02 23:06:00,
2013-02-02 18:12:00,29.1,-4.1,29.88,WSW,258,3.1,7.2,23,0.00,,---,0.00,VWS V12.07,2013-02-02 23:12:00,
2013-02-02 18:18:00,29.1,-4.1,29.88,SW,222,3.1,6.3,23,0.00,,---,0.00,VWS V12.07,2013-02-02 23:18:00,
2013-02-02 18:24:00,29.1,-4.1,29.88,SE,127,3.1,7.6,23,0.00,,---,0.00,VWS V12.07,2013-02-02 23:24:00,
2013-02-02 18:30:00,29.1,-4.1,29.88,WSW,250,4.9,8.1,23,0.00,,---,0.00,VWS V12.07,2013-02-02 23:30:00,
2013-02-02 18:38:00,28.9,-4.2,29.88,SSW,200,7.6,8.1,23,0.00,,---,0.00,VWS V12.07,2013-02-02 23:38:00,
2013-02-02 18:44:00,28.9,-4.2,29.88,SW,228,4.9,4.9,23,0.00,,---,0.00,VWS V12.07,2013-02-02 23:44:00,
2013-02-02 18:51:00,28.9,-4.2,29.88,SW,219,3.1,6.3,23,0.00,,---,0.00,VWS V12.07,2013-02-02 23:51:00,
2013-02-02 18:56:00,28.9,-4.2,29.88,SW,219,3.1,8.1,23,0.00,,---,0.00,VWS V12.07,2013-02-02 23:56:00,
2013-02-02 19:02:00,28.9,-4.2,29.88,West,268,4.0,8.3,23,0.00,,---,0.00,VWS V12.07,2013-02-03 00:02:00,
2013-02-02 19:10:00,28.8,-4.3,29.88,South,186,4.0,8.3,23,0.00,,---,0.00,VWS V12.07,2013-02-03 00:10:00,
2013-02-02 19:16:00,28.6,-4.5,29.88,SW,227,4.9,6.3,23,0.00,,---,0.00,VWS V12.07,2013-02-03 00:16:00,
2013-02-02 19:22:00,28.6,-4.5,29.88,West,280,6.7,7.6,23,0.00,,---,0.00,VWS V12.07,2013-02-03 00:22:00,
2013-02-02 19:28:00,28.6,-4.5,29.88,West,263,5.4,8.3,23,0.00,,---,0.00,VWS V12.07,2013-02-03 00:28:00,
2013-02-02 19:34:00,28.6,-4.5,29.88,SW,216,5.4,8.3,23,0.00,,---,0.00,VWS V12.07,2013-02-03 00:34:00,
2013-02-02 19:40:00,28.6,-4.5,29.88,SW,236,3.6,8.3,23,0.00,,---,0.00,VWS V12.07,2013-02-03 00:40:00,
2013-02-02 19:46:00,28.6,-4.5,29.88,West,261,7.6,10.5,23,0.00,,---,0.00,VWS V12.07,2013-02-03 00:46:00,
2013-02-02 19:52:00,28.6,-4.5,29.88,SW,230,4.0,10.5,23,0.00,,---,0.00,VWS V12.07,2013-02-03 00:52:00,
2013-02-02 19:58:00,28.6,-4.5,29.88,SW,232,4.0,10.5,23,0.00,,---,0.00,VWS V12.07,2013-02-03 00:58:00,
2013-02-02 20:03:00,28.4,-4.7,29.88,West,271,3.1,8.1,23,0.00,,---,0.00,VWS V12.07,2013-02-03 01:03:00,
2013-02-02 20:09:00,28.4,-4.7,29.85,SW,226,3.6,8.3,23,0.00,,---,0.00,VWS V12.07,2013-02-03 01:09:00,
2013-02-02 20:15:00,28.2,-4.8,29.85,WSW,241,5.4,6.3,23,0.00,,---,0.00,VWS V12.07,2013-02-03 01:15:00,
2013-02-02 20:21:00,28.2,-4.8,29.85,SW,231,3.1,6.3,23,0.00,,---,0.00,VWS V12.07,2013-02-03 01:21:00,
2013-02-02 20:27:00,28.0,-5.0,29.85,SW,230,6.7,8.7,23,0.00,,---,0.00,VWS V12.07,2013-02-03 01:27:00,
2013-02-02 20:33:00,28.0,-5.0,29.85,West,279,5.8,7.6,23,0.00,,---,0.00,VWS V12.07,2013-02-03 01:33:00,
2013-02-02 20:39:00,28.0,-5.0,29.85,WSW,250,5.8,11.0,23,0.00,,---,0.00,VWS V12.07,2013-02-03 01:39:00,
2013-02-02 20:45:00,28.0,-5.0,29.85,SW,234,4.9,4.9,23,0.00,,---,0.00,VWS V12.07,2013-02-03 01:45:00,
2013-02-02 20:51:00,28.0,-5.0,29.85,SSW,210,6.3,10.1,23,0.00,,---,0.00,VWS V12.07,2013-02-03 01:51:00,
2013-02-02 20:56:00,27.9,-5.1,29.85,West,259,8.3,10.1,23,0.00,,---,0.00,VWS V12.07,2013-02-03 01:56:00,
2013-02-02 21:03:00,27.9,-5.1,29.85,West,259,4.9,5.8,23,0.00,,---,0.00,VWS V12.07,2013-02-03 02:03:00,
2013-02-02 21:09:00,27.9,-5.1,29.88,WSW,250,5.8,8.3,23,0.00,,---,0.00,VWS V12.07,2013-02-03 02:09:00,
2013-02-02 21:15:00,27.9,-5.1,29.88,West,266,4.0,6.3,23,0.00,,---,0.00,VWS V12.07,2013-02-03 02:15:00,
2013-02-02 21:23:00,27.7,-5.3,29.88,SSW,211,3.6,8.1,23,0.00,,---,0.00,VWS V12.07,2013-02-03 02:23:00,
2013-02-02 21:29:00,27.7,-5.3,29.88,West,260,3.6,3.6,23,0.00,,---,0.00,VWS V12.07,2013-02-03 02:29:00,
2013-02-02 21:35:00,27.7,-5.3,29.85,West,280,3.6,6.3,23,0.00,,---,0.00,VWS V12.07,2013-02-03 02:35:00,
2013-02-02 21:41:00,27.7,-5.3,29.85,West,280,4.0,6.3,23,0.00,,---,0.00,VWS V12.07,2013-02-03 02:41:00,
2013-02-02 21:47:00,27.7,-5.3,29.85,West,268,3.6,6.3,23,0.00,,---,0.00,VWS V12.07,2013-02-03 02:47:00,
2013-02-02 21:53:00,27.5,-5.4,29.85,SW,233,5.8,8.3,23,0.00,,---,0.00,VWS V12.07,2013-02-03 02:53:00,
2013-02-02 21:59:00,27.5,-5.4,29.85,SW,224,2.7,3.1,23,0.00,,---,0.00,VWS V12.07,2013-02-03 02:59:00,
2013-02-02 22:05:00,27.5,-5.4,29.85,WSW,251,8.1,8.1,23,0.00,,---,0.00,VWS V12.07,2013-02-03 03:05:00,
2013-02-02 22:11:00,27.5,-5.4,29.85,WSW,237,4.0,8.1,23,0.00,,---,0.00,VWS V12.07,2013-02-03 03:11:00,
2013-02-02 22:17:00,27.5,-5.4,29.85,WSW,248,5.4,5.8,23,0.00,,---,0.00,VWS V12.07,2013-02-03 03:17:00,
2013-02-02 22:23:00,27.5,-5.4,29.85,West,261,5.4,8.3,23,0.00,,---,0.00,VWS V12.07,2013-02-03 03:23:00,
2013-02-02 22:29:00,27.5,-5.4,29.85,WSW,250,2.7,4.9,23,0.00,,---,0.00,VWS V12.07,2013-02-03 03:29:00,
2013-02-02 22:35:00,27.5,-5.4,29.85,WSW,249,4.9,7.2,23,0.00,,---,0.00,VWS V12.07,2013-02-03 03:35:00,
2013-02-02 22:41:00,27.5,-5.4,29.85,SW,229,4.9,7.2,23,0.00,,---,0.00,VWS V12.07,2013-02-03 03:41:00,
2013-02-02 22:47:00,27.7,-5.3,29.85,WSW,256,4.0,5.4,23,0.00,,---,0.00,VWS V12.07,2013-02-03 03:47:00,
2013-02-02 22:53:00,27.7,-5.3,29.85,SW,234,2.7,6.3,23,0.00,,---,0.00,VWS V12.07,2013-02-03 03:53:00,
2013-02-02 22:58:00,27.7,-5.3,29.85,WSW,241,2.7,2.7,23,0.00,,---,0.00,VWS V12.07,2013-02-03 03:58:00,
2013-02-02 23:05:00,27.7,-5.3,29.85,WSW,242,0.0,6.3,23,0.00,,---,0.00,VWS V12.07,2013-02-03 04:05:00,
2013-02-02 23:10:00,27.7,-5.3,29.85,WSW,246,5.8,7.6,23,0.00,,---,0.00,VWS V12.07,2013-02-03 04:10:00,
2013-02-02 23:17:00,27.7,-5.3,29.85,SW,230,3.1,5.8,23,0.00,,---,0.00,VWS V12.07,2013-02-03 04:17:00,
2013-02-02 23:23:00,27.5,-5.4,29.85,WNW,292,4.9,6.3,23,0.00,,---,0.00,VWS V12.07,2013-02-03 04:23:00,
2013-02-02 23:29:00,27.5,-5.4,29.85,West,262,6.3,8.1,23,0.00,,---,0.00,VWS V12.07,2013-02-03 04:29:00,
2013-02-02 23:35:00,27.5,-5.4,29.85,WSW,257,5.4,7.6,23,0.00,,---,0.00,VWS V12.07,2013-02-03 04:35:00,
2013-02-02 23:41:00,27.3,-5.6,29.85,SSW,197,2.7,7.6,23,0.00,,---,0.00,VWS V12.07,2013-02-03 04:41:00,
2013-02-02 23:47:00,27.3,-5.6,29.85,West,261,8.3,8.3,23,0.00,,---,0.00,VWS V12.07,2013-02-03 04:47:00,
2013-02-02 23:52:00,27.1,-5.7,29.85,WSW,256,5.8,8.3,23,0.00,,---,0.00,VWS V12.07,2013-02-03 04:52:00,
2013-02-02 23:58:00,27.0,-5.9,29.85,WSW,256,4.9,8.3,23,0.00,,---,0.00,VWS V12.07,2013-02-03 04:58:00,